Location: Newark
(49.8348°N, 24.0280°E)
Time: 07:57:03
(UTC+00:00)

Transit 4A - All Passes

Search period start: 19 January 2020 00:00
Search period end: 29 January 2020 00:00
Orbit: 871 x 973 km, 66.8° (Epoch: 18 January)

Date Brightness Start Highest point End Pass type
(mag) Time Alt. Az. Time Alt. Az. Time Alt. Az.
19 Jan - 05:14:13 10° SSE 05:18:44 22° ESE 05:23:11 10° ENE visible
19 Jan - 06:58:27 10° SW 07:04:29 79° NW 07:10:25 10° NE daylight
19 Jan - 08:46:54 10° W 08:51:45 25° NNW 08:56:32 10° NNE daylight
19 Jan - 10:37:00 10° NW 10:40:17 15° N 10:43:33 10° NNE daylight
19 Jan - 12:24:34 10° NNW 12:28:58 21° NNE 12:33:20 10° ENE daylight
19 Jan - 14:10:43 10° NNW 14:16:30 61° NE 14:22:17 10° SE daylight
19 Jan - 15:57:34 10° NW 16:02:30 29° WSW 16:07:27 10° S visible
20 Jan - 05:22:35 10° S 05:27:49 32° ESE 05:32:59 10° NE visible
20 Jan - 07:07:58 10° SW 07:13:54 59° NW 07:19:44 10° NNE daylight
20 Jan - 08:57:03 10° WNW 09:01:28 21° NNW 09:05:51 10° NNE daylight
20 Jan - 10:46:53 10° NNW 10:50:10 15° N 10:53:25 10° NE daylight
20 Jan - 12:33:53 10° NNW 12:38:41 25° NNE 12:43:28 10° E daylight
20 Jan - 14:20:02 10° NW 14:25:54 82° NE 14:31:46 10° SE daylight
20 Jan - 16:07:24 10° WNW 16:11:34 21° WSW 16:15:44 10° SSW visible
21 Jan - 05:31:17 10° S 05:36:59 45° ESE 05:42:34 10° NE visible
21 Jan - 07:17:38 10° WSW 07:23:23 45° NW 07:29:01 10° NNE daylight
21 Jan - 09:07:15 10° WNW 09:11:15 18° NNW 09:15:14 10° NNE daylight
21 Jan - 10:56:35 10° NNW 11:00:03 16° N 11:03:28 10° NE daylight
21 Jan - 12:43:11 10° NNW 12:48:21 31° NE 12:53:28 10° E daylight
21 Jan - 14:29:24 10° NW 14:35:13 73° WSW 14:41:03 10° SSE daylight
21 Jan - 16:17:45 10° WNW 16:20:34 14° WSW 16:23:23 10° SW visible
22 Jan - 03:59:01 10° ESE 04:00:58 12° E 04:02:55 10° E visible
22 Jan - 05:40:16 10° SSW 05:46:12 63° ESE 05:52:02 10° NE daylight
22 Jan - 07:27:29 10° WSW 07:32:55 35° NW 07:38:18 10° NNE daylight
22 Jan - 09:17:27 10° NW 09:21:05 16° NNW 09:24:42 10° NNE daylight
22 Jan - 11:06:08 10° NNW 11:09:54 17° NNE 11:13:38 10° NE daylight
22 Jan - 12:52:28 10° NNW 12:57:56 39° NE 13:03:22 10° ESE daylight
22 Jan - 14:38:50 10° NW 14:44:28 52° WSW 14:50:07 10° SSE daylight
23 Jan - 04:06:07 10° SE 04:09:57 18° ESE 04:13:44 10° ENE visible
23 Jan - 05:49:27 10° SSW 05:55:30 86° SE 06:01:26 10° NE daylight
23 Jan - 07:37:28 10° W 07:42:33 28° NNW 07:47:35 10° NNE daylight
23 Jan - 09:27:35 10° NW 09:30:57 15° N 09:34:18 10° NNE daylight
23 Jan - 11:15:34 10° NNW 11:19:42 19° NNE 11:23:49 10° ENE daylight
23 Jan - 13:01:45 10° NNW 13:07:27 51° NE 13:13:07 10° ESE daylight
23 Jan - 14:48:22 10° NW 14:53:39 37° WSW 14:58:57 10° S daylight
24 Jan - 04:14:11 10° SSE 04:18:59 25° ESE 04:23:44 10° NE visible
24 Jan - 05:58:51 10° SW 06:04:51 71° NW 06:10:46 10° NE daylight
24 Jan - 07:47:33 10° W 07:52:13 23° NNW 07:56:52 10° NNE daylight
24 Jan - 09:37:35 10° NW 09:40:50 15° N 09:44:04 10° NNE daylight
24 Jan - 11:24:55 10° NNW 11:29:27 22° NNE 11:33:58 10° ENE daylight
24 Jan - 13:11:03 10° NNW 13:16:53 68° NE 13:22:42 10° SE daylight
24 Jan - 14:58:03 10° NW 15:02:45 26° WSW 15:07:29 10° SSW daylight
25 Jan - 04:22:41 10° S 04:28:06 36° ESE 04:33:25 10° NE visible
25 Jan - 06:08:26 10° WSW 06:14:17 53° NW 06:20:04 10° NNE daylight
25 Jan - 07:57:43 10° WNW 08:01:59 20° NNW 08:06:12 10° NNE daylight
25 Jan - 09:47:24 10° NNW 09:50:43 15° N 09:54:01 10° NE daylight
25 Jan - 11:34:14 10° NNW 11:39:10 27° NNE 11:44:04 10° E daylight
25 Jan - 13:20:23 10° NW 13:26:15 89° SW 13:32:07 10° SSE daylight
25 Jan - 15:08:02 10° WNW 15:11:48 18° WSW 15:15:35 10° SW daylight
26 Jan - 04:31:30 10° S 04:37:17 51° ESE 04:42:58 10° NE visible
26 Jan - 06:18:11 10° WSW 06:23:48 41° NW 06:29:20 10° NNE daylight
26 Jan - 08:07:56 10° WNW 08:11:47 17° NNW 08:15:36 10° NNE daylight
26 Jan - 09:57:02 10° NNW 10:00:35 16° NNE 10:04:06 10° NE daylight
26 Jan - 11:43:31 10° NNW 11:48:48 33° NE 11:54:03 10° ESE daylight
26 Jan - 13:29:46 10° NW 13:35:33 65° WSW 13:41:20 10° SSE daylight
26 Jan - 15:18:47 10° W 15:20:46 12° W 15:22:46 10° WSW daylight
27 Jan - 02:58:23 10° SE 03:01:11 14° ESE 03:03:58 10° ENE visible
27 Jan - 04:40:34 10° SSW 04:46:32 71° ESE 04:52:24 10° NE visible
27 Jan - 06:28:04 10° W 06:33:22 32° NW 06:38:37 10° NNE daylight
27 Jan - 08:18:07 10° NW 08:21:37 16° N 08:25:07 10° NNE daylight
27 Jan - 10:06:32 10° NNW 10:10:25 18° NNE 10:14:17 10° ENE daylight
27 Jan - 11:52:47 10° NNW 11:58:21 43° NE 12:03:53 10° ESE daylight
27 Jan - 13:39:14 10° NW 13:44:46 46° WSW 13:50:19 10° S daylight
28 Jan - 03:05:58 10° SSE 03:10:12 20° ESE 03:14:21 10° ENE visible
28 Jan - 04:49:50 10° SW 04:55:51 86° NW 05:01:46 10° NE visible
28 Jan - 06:38:05 10° W 06:43:01 26° NNW 06:47:54 10° NNE daylight
28 Jan - 08:28:12 10° NW 08:31:30 15° N 08:34:47 10° NNE daylight
28 Jan - 10:15:56 10° NNW 10:20:13 20° NNE 10:24:28 10° ENE daylight
28 Jan - 12:02:05 10° NNW 12:07:50 56° NE 12:13:35 10° SE daylight
28 Jan - 13:48:49 10° NW 13:53:56 32° WSW 13:59:03 10° S daylight
